Regional Weather Roundup
Issued by NWS Green Bay, WI

Home | Current Version | Previous Version | Graphics & Text | Print | Product List | Glossary Off
Versions: 1 2 3 4 5 6 7 8 9 10 11 12 13 14 15 16 17 18 19 20 21 22 23 24 25 26 27 28 29 30 31 32 33 34 35 36 37 38 39 40 41 42 43 44 45 46 47 48 49 50

000
ASUS43 KGRB 201801
RWRGRB

NORTH-CENTRAL AND NORTHEAST WISCONSIN REGIONAL WEATHER ROUNDUP
NATIONAL WEATHER SERVICE GREEN BAY WI
100 PM CDT SUN AUG 20 2017

WIZ005-009-010>012-018-019-201900-
NORTH CENTRAL WISCONSIN

CITY           SKY/WX    TMP DP  RH WIND       PRES   REMARKS
IRONWOOD       MOSUNNY   80  65  59 SW15      29.88F
MANITOWISH WTR NOT AVBL
ARBOR VITAE    NOT AVBL
EAGLE RIVER    NOT AVBL
LAND O LAKES   NOT AVBL
RHINELANDER    PTSUNNY   78  65  63 SW17      29.97F
PHILLIPS       NOT AVBL
ANTIGO         NOT AVBL
TOMAHAWK       NOT AVBL
MERRILL        NOT AVBL
$$

WIZ013-073-201900-
NORTHEAST WISCONSIN

CITY           SKY/WX    TMP DP  RH WIND       PRES   REMARKS
IRON MOUNTAIN  MOSUNNY   80  61  52 S13G22    29.94F
MARINETTE      CLOUDY    78  66  66 SW12G18   29.98F
$$

WIZ017-030-035>037-045-201900-
CENTRAL WISCONSIN

CITY           SKY/WX    TMP DP  RH WIND       PRES   REMARKS
MEDFORD        NOT AVBL
WAUSAU         CLOUDY    77  66  68 S9G20     29.96F
MOSINEE        PTSUNNY   75  66  73 S10G18    29.99F
MARSHFIELD     CLOUDY    78  64  61 SW12      29.97F
WISC RAPIDS    CLOUDY    77  67  71 SW9       29.99F
STEVENS POINT  NOT AVBL
WAUPACA        NOT AVBL
SHAWANO        NOT AVBL
CLINTONVILLE   NOT AVBL
WAUTOMA        CLOUDY    78  68  71 SW9       29.99F
$$

WIZ038-039-048-051-201900-
FOX VALLEY

CITY           SKY/WX    TMP DP  RH WIND       PRES   REMARKS
NWS GREEN BAY  CLOUDY    77  67  71 S7        29.99F
APPLETON       CLOUDY    79  61  53 SW13      30.01S
OSHKOSH        PTSUNNY   77  66  68 S8        29.99F
FOND DU LAC    PTSUNNY   78  64  61 S10       30.00F
$$

WIZ022-050-052-201900-
EAST CENTRAL WISCONSIN

CITY           SKY/WX    TMP DP  RH WIND       PRES   REMARKS
EPHRAIM        NOT AVBL
WASHINGTON ISL NOT AVBL
STURGEON BAY   CLOUDY    77  64  64 S14       29.99F
MANITOWOC      NOT AVBL
SHEBOYGAN      CLOUDY    80  67  64 SW8       30.01F
$$

LMZ563-521-522-541>543-201900-
LAKESHORE

STATION/POSITION TIME  TEMP    WIND        PRES    VSBY  WAVE
                       AIR SEA DIR/SP/G                  HT/PER
                 (UTC) (F)     (DEG/KT/KT) (MB)    (MI)  (FT/S)
SHEBOYGAN LKSHOR 1700   70     170/ 13/ 14 1016.5
KEWAUNEE LKSHORE 1730   69     180/ 11/ 12 1015.6F
NORTHPORT PIER   1740   74     150/  9/ 14 1014.9F
N MID LAKE BUOY  1650   68 67  190/ 14/ 16 1016.4R         2/ 4
S GREEN BAY BUOY 1730   73 71  200/ 10/ 12 1015.4F
SISTER BAY LKSHO 1718   79     240/ 10/ 13   N/A
MENOMINEE LKSHOR 1730   75     180/  8/ 11 1014.9F
$$



USA.gov is the U.S. government's official web portal to all federal, state and local government web resources and services.